C2010 KTVC-KECG

Flight info

Callsign C2010
Flight time 2h 0m
Altitude 27000
Route RIFKI TVC MTC ACO FAK SUNNS NETUE LIBLE GUDLE
Aircraft C30J/M-SGHIRTUY/L

Departure

Time 2026-05-01 12:50
Airport Cherry Capital Airport (KTVC)

Arrival

Time 2026-05-01 14:50
Airport Elizabeth City Regional Airport & Coast Guard Air Station (KECG)
Time Latitude Longitude Altitude Speed Heading
2026-05-01 12:34 44.74587 -85.58484 625 ft 0 kts 270°
2026-05-01 12:42 44.74587 -85.58485 625 ft 0 kts 270°
2026-05-01 12:42 44.74587 -85.58491 625 ft 1 kts 256°
2026-05-01 12:42 44.74577 -85.58507 628 ft 2 kts 233°
2026-05-01 12:43 44.74564 -85.58537 628 ft 9 kts 243°
2026-05-01 12:43 44.74563 -85.58576 625 ft 3 kts 270°
2026-05-01 12:43 44.74533 -85.58602 628 ft 8 kts 186°
2026-05-01 12:43 44.74478 -85.58601 629 ft 11 kts 181°
2026-05-01 12:44 44.74422 -85.58599 630 ft 7 kts 181°
2026-05-01 12:44 44.74366 -85.58603 627 ft 10 kts 183°
2026-05-01 12:44 44.74253 -85.58490 636 ft 12 kts 128°
2026-05-01 12:45 44.74205 -85.58273 625 ft 10 kts 93°
2026-05-01 12:45 44.74201 -85.58180 625 ft 9 kts 93°
2026-05-01 12:45 44.74196 -85.58088 635 ft 12 kts 94°
2026-05-01 12:46 44.74189 -85.57933 625 ft 17 kts 95°
2026-05-01 12:46 44.74182 -85.57795 632 ft 12 kts 94°
2026-05-01 12:46 44.74176 -85.57681 625 ft 12 kts 94°
2026-05-01 12:46 44.74170 -85.57560 625 ft 13 kts 95°
2026-05-01 12:47 44.74164 -85.57442 625 ft 12 kts 94°
2026-05-01 12:47 44.74157 -85.57315 625 ft 14 kts 93°
2026-05-01 12:47 44.74151 -85.57177 630 ft 14 kts 95°
2026-05-01 12:47 44.74146 -85.57039 625 ft 14 kts 94°
2026-05-01 12:48 44.74141 -85.56898 630 ft 14 kts 94°
2026-05-01 12:48 44.74134 -85.56759 630 ft 14 kts 94°
2026-05-01 12:48 44.74129 -85.56626 625 ft 13 kts 93°
2026-05-01 12:48 44.74122 -85.56497 625 ft 13 kts 94°
2026-05-01 12:49 44.74095 -85.56401 625 ft 11 kts 167°
2026-05-01 12:49 44.74033 -85.56403 630 ft 9 kts 190°
2026-05-01 12:49 44.74000 -85.56469 626 ft 9 kts 273°
2026-05-01 12:49 44.74001 -85.56489 626 ft 0 kts 274°
2026-05-01 12:50 44.74024 -85.56985 629 ft 106 kts 274°
2026-05-01 12:50 44.74093 -85.58374 789 ft 165 kts 277°
2026-05-01 12:50 44.74145 -85.60032 1466 ft 172 kts 273°
2026-05-01 12:50 44.74152 -85.61826 1946 ft 189 kts 274°
2026-05-01 12:51 44.74191 -85.63691 2610 ft 202 kts 268°
2026-05-01 12:51 44.73579 -85.65669 2859 ft 240 kts 227°
2026-05-01 12:51 44.70925 -85.66308 3240 ft 194 kts 142°
2026-05-01 12:52 44.70124 -85.64831 3597 ft 189 kts 112°
2026-05-01 12:52 44.69052 -85.61129 5102 ft 227 kts 111°
2026-05-01 12:52 44.68373 -85.59065 5611 ft 239 kts 115°
2026-05-01 12:53 44.66704 -85.55020 6702 ft 242 kts 128°
2026-05-01 12:53 44.65603 -85.53221 7252 ft 244 kts 135°
2026-05-01 12:53 44.64408 -85.51510 7773 ft 247 kts 136°
2026-05-01 12:54 44.63186 -85.49811 8312 ft 249 kts 136°
2026-05-01 12:54 44.60692 -85.46363 9406 ft 254 kts 136°
2026-05-01 12:54 44.59427 -85.44614 9978 ft 257 kts 136°
2026-05-01 12:55 44.56882 -85.41097 10991 ft 259 kts 137°
2026-05-01 12:55 44.55593 -85.39319 11508 ft 261 kts 137°
2026-05-01 12:55 44.54292 -85.37523 12038 ft 265 kts 137°
2026-05-01 12:56 44.52971 -85.35704 12579 ft 267 kts 137°
2026-05-01 12:56 44.51646 -85.33879 13110 ft 270 kts 137°
2026-05-01 12:56 44.50296 -85.32021 13678 ft 274 kts 137°
2026-05-01 12:56 44.48930 -85.30141 14194 ft 276 kts 137°
2026-05-01 12:57 44.47559 -85.28252 14697 ft 278 kts 137°
2026-05-01 12:57 44.44778 -85.24431 15715 ft 282 kts 137°
2026-05-01 12:57 44.43391 -85.22526 16236 ft 284 kts 137°
2026-05-01 12:58 44.41978 -85.20587 16770 ft 286 kts 137°
2026-05-01 12:58 44.40547 -85.18625 17314 ft 289 kts 137°
2026-05-01 12:58 44.39107 -85.16651 17868 ft 291 kts 137°
2026-05-01 12:59 44.36193 -85.12660 18906 ft 294 kts 137°
2026-05-01 12:59 44.34731 -85.10660 19397 ft 295 kts 137°
2026-05-01 12:59 44.31795 -85.06648 20409 ft 295 kts 137°
2026-05-01 13:00 44.28857 -85.02640 21456 ft 295 kts 138°
2026-05-01 13:00 44.27406 -85.00662 21986 ft 294 kts 138°
2026-05-01 13:01 44.24491 -84.96691 23086 ft 291 kts 138°
2026-05-01 13:01 44.23047 -84.94726 23642 ft 289 kts 138°
2026-05-01 13:01 44.20183 -84.90835 24593 ft 285 kts 139°
2026-05-01 13:02 44.18767 -84.88912 25076 ft 283 kts 139°
2026-05-01 13:07 43.84870 -84.43292 27012 ft 356 kts 140°
2026-05-01 13:07 43.83082 -84.40905 27014 ft 358 kts 140°
2026-05-01 13:07 43.81284 -84.38509 27014 ft 359 kts 140°
2026-05-01 13:08 43.80094 -84.36923 27014 ft 359 kts 140°
2026-05-01 13:08 43.78290 -84.34521 27012 ft 360 kts 140°
2026-05-01 13:08 43.76492 -84.32130 27012 ft 361 kts 140°
2026-05-01 13:08 43.74681 -84.29723 27012 ft 361 kts 140°
2026-05-01 13:09 43.72279 -84.26533 27011 ft 362 kts 140°
2026-05-01 13:09 43.71054 -84.24908 27011 ft 362 kts 140°
2026-05-01 13:09 43.68653 -84.21727 27061 ft 361 kts 140°
2026-05-01 13:09 43.67428 -84.20105 27044 ft 361 kts 141°
2026-05-01 13:10 43.65617 -84.17709 27059 ft 361 kts 141°
2026-05-01 13:10 43.63802 -84.15310 27059 ft 361 kts 141°
2026-05-01 13:10 43.61989 -84.12916 27058 ft 362 kts 141°
2026-05-01 13:10 43.60193 -84.10546 27058 ft 362 kts 141°
2026-05-01 13:11 43.58380 -84.08156 27068 ft 362 kts 141°
2026-05-01 13:11 43.56560 -84.05758 27068 ft 362 kts 141°
2026-05-01 13:11 43.54737 -84.03359 27067 ft 362 kts 141°
2026-05-01 13:11 43.52923 -84.00974 27067 ft 363 kts 141°
2026-05-01 13:12 43.51097 -83.98576 27066 ft 363 kts 141°
2026-05-01 13:12 43.49271 -83.96178 27066 ft 363 kts 141°
2026-05-01 13:12 43.47439 -83.93776 27047 ft 363 kts 141°
2026-05-01 13:12 43.45608 -83.91376 27039 ft 363 kts 141°
2026-05-01 13:13 43.43779 -83.88982 27053 ft 363 kts 141°
2026-05-01 13:13 43.41948 -83.86588 27049 ft 363 kts 141°
2026-05-01 13:13 43.40124 -83.84204 27047 ft 364 kts 141°
2026-05-01 13:13 43.38290 -83.81808 27048 ft 364 kts 141°
2026-05-01 13:14 43.36461 -83.79423 27046 ft 364 kts 141°
2026-05-01 13:14 43.34626 -83.77031 27048 ft 364 kts 141°
2026-05-01 13:14 43.32788 -83.74637 27048 ft 364 kts 142°
2026-05-01 13:14 43.30951 -83.72247 27048 ft 364 kts 142°
2026-05-01 13:15 43.29115 -83.69859 27051 ft 364 kts 142°
2026-05-01 13:15 43.27274 -83.67469 27047 ft 364 kts 142°
2026-05-01 13:15 43.25456 -83.65110 27022 ft 364 kts 142°
2026-05-01 13:15 43.23621 -83.62730 27036 ft 364 kts 142°
2026-05-01 13:16 43.21784 -83.60349 27043 ft 364 kts 142°
2026-05-01 13:16 43.19942 -83.57966 27038 ft 364 kts 142°
2026-05-01 13:16 43.18100 -83.55584 27040 ft 364 kts 142°
2026-05-01 13:17 43.12568 -83.48442 27037 ft 364 kts 142°
2026-05-01 13:17 43.10722 -83.46063 27035 ft 364 kts 142°
2026-05-01 13:18 43.07025 -83.41305 27034 ft 365 kts 142°
2026-05-01 13:18 43.05198 -83.38956 27034 ft 365 kts 142°
2026-05-01 13:18 43.03345 -83.36576 27007 ft 365 kts 143°
2026-05-01 13:18 43.01505 -83.34215 27031 ft 364 kts 143°
2026-05-01 13:19 42.99659 -83.31849 27032 ft 364 kts 143°
2026-05-01 13:19 42.97809 -83.29479 27025 ft 364 kts 143°
2026-05-01 13:19 42.94103 -83.24739 27023 ft 366 kts 143°
2026-05-01 13:20 42.92246 -83.22367 27021 ft 366 kts 143°
2026-05-01 13:20 42.90390 -83.19996 27022 ft 366 kts 143°
2026-05-01 13:20 42.88531 -83.17626 27025 ft 366 kts 143°
2026-05-01 13:21 42.84822 -83.12901 27018 ft 365 kts 143°
2026-05-01 13:21 42.82990 -83.10571 27021 ft 366 kts 143°
2026-05-01 13:21 42.81127 -83.08204 26996 ft 367 kts 143°
2026-05-01 13:21 42.79262 -83.05836 27001 ft 367 kts 143°
2026-05-01 13:22 42.77395 -83.03466 27005 ft 368 kts 143°
2026-05-01 13:22 42.75522 -83.01093 27005 ft 368 kts 143°
2026-05-01 13:22 42.73646 -82.98715 27004 ft 368 kts 144°
2026-05-01 13:22 42.71770 -82.96341 27001 ft 368 kts 144°
2026-05-01 13:23 42.69894 -82.93969 27003 ft 368 kts 144°
2026-05-01 13:23 42.68029 -82.91613 27002 ft 368 kts 144°
2026-05-01 13:23 42.66171 -82.89268 27002 ft 368 kts 144°
2026-05-01 13:23 42.64292 -82.86898 27003 ft 368 kts 144°
2026-05-01 13:24 42.62419 -82.84538 27002 ft 367 kts 144°
2026-05-01 13:24 42.60475 -82.82315 27001 ft 364 kts 149°
2026-05-01 13:24 42.58489 -82.80177 27002 ft 364 kts 148°
2026-05-01 13:25 42.54557 -82.75827 26997 ft 365 kts 148°
2026-05-01 13:25 42.52595 -82.73638 27000 ft 365 kts 148°
2026-05-01 13:25 42.50656 -82.71474 27004 ft 364 kts 148°
2026-05-01 13:25 42.48698 -82.69289 27002 ft 364 kts 148°
2026-05-01 13:26 42.46743 -82.67108 27005 ft 364 kts 148°
2026-05-01 13:26 42.44814 -82.64958 27006 ft 364 kts 148°
2026-05-01 13:26 42.42863 -82.62787 27006 ft 363 kts 148°
2026-05-01 13:26 42.40906 -82.60610 27007 ft 363 kts 148°
2026-05-01 13:27 42.38954 -82.58441 27009 ft 363 kts 148°
2026-05-01 13:27 42.37000 -82.56272 26986 ft 363 kts 148°
2026-05-01 13:27 42.33104 -82.51952 27014 ft 363 kts 148°
2026-05-01 13:28 42.29190 -82.47622 27015 ft 364 kts 148°
2026-05-01 13:28 42.27230 -82.45457 27012 ft 364 kts 148°
2026-05-01 13:29 42.23301 -82.41122 27008 ft 365 kts 148°
2026-05-01 13:29 42.19369 -82.36790 27012 ft 365 kts 149°
2026-05-01 13:30 42.11515 -82.28163 27018 ft 364 kts 149°
2026-05-01 13:31 42.07584 -82.23859 27017 ft 364 kts 149°
2026-05-01 13:31 42.01686 -82.17413 27018 ft 365 kts 149°
2026-05-01 13:32 41.97751 -82.13122 27017 ft 366 kts 149°
2026-05-01 13:33 41.91850 -82.06699 26986 ft 366 kts 150°
2026-05-01 13:33 41.87897 -82.02407 27021 ft 365 kts 150°
2026-05-01 13:34 41.83940 -81.98118 27020 ft 366 kts 150°
2026-05-01 13:34 41.79987 -81.93842 27016 ft 366 kts 150°
2026-05-01 13:35 41.76023 -81.89559 27014 ft 366 kts 150°
2026-05-01 13:35 41.74040 -81.87420 27013 ft 366 kts 150°
2026-05-01 13:35 41.70068 -81.83141 27007 ft 366 kts 150°
2026-05-01 13:36 41.68085 -81.81007 26993 ft 366 kts 150°
2026-05-01 13:36 41.66099 -81.78871 27003 ft 366 kts 150°
2026-05-01 13:36 41.62135 -81.74616 26999 ft 366 kts 150°
2026-05-01 13:37 41.60147 -81.72483 26994 ft 367 kts 150°
2026-05-01 13:37 41.58159 -81.70353 26984 ft 367 kts 151°
2026-05-01 13:37 41.56170 -81.68223 26996 ft 367 kts 150°
2026-05-01 13:37 41.54178 -81.66093 26993 ft 367 kts 151°
2026-05-01 13:38 41.50188 -81.61830 26993 ft 367 kts 151°
2026-05-01 13:38 41.48195 -81.59704 26994 ft 368 kts 151°
2026-05-01 13:38 41.46193 -81.57569 26957 ft 368 kts 151°
2026-05-01 13:39 41.44191 -81.55436 26996 ft 368 kts 151°
2026-05-01 13:39 41.42190 -81.53306 26999 ft 369 kts 151°
2026-05-01 13:39 41.40181 -81.51170 26996 ft 369 kts 151°
2026-05-01 13:39 41.38175 -81.49039 26992 ft 369 kts 151°
2026-05-01 13:40 41.36170 -81.46910 26989 ft 370 kts 151°
2026-05-01 13:40 41.34157 -81.44775 26992 ft 370 kts 151°
2026-05-01 13:40 41.32144 -81.42641 26992 ft 370 kts 151°
2026-05-01 13:40 41.30126 -81.40504 26992 ft 371 kts 151°
2026-05-01 13:41 41.28111 -81.38372 26988 ft 370 kts 151°
2026-05-01 13:41 41.26097 -81.36242 26994 ft 370 kts 151°
2026-05-01 13:41 41.24077 -81.34108 26994 ft 370 kts 151°
2026-05-01 13:41 41.22065 -81.31983 26974 ft 370 kts 152°
2026-05-01 13:42 41.20050 -81.29858 26997 ft 370 kts 152°
2026-05-01 13:42 41.18060 -81.27763 26990 ft 370 kts 152°
2026-05-01 13:42 41.16023 -81.25618 26983 ft 371 kts 152°
2026-05-01 13:42 41.14026 -81.23517 26986 ft 372 kts 152°
2026-05-01 13:43 41.12001 -81.21388 26982 ft 372 kts 152°
2026-05-01 13:43 41.09959 -81.19292 26983 ft 370 kts 154°
2026-05-01 13:43 41.07886 -81.17268 26986 ft 370 kts 154°
2026-05-01 13:43 41.05791 -81.15197 26986 ft 371 kts 154°
2026-05-01 13:44 41.03757 -81.13164 26987 ft 372 kts 154°
2026-05-01 13:44 41.01694 -81.11095 26988 ft 372 kts 153°
2026-05-01 13:44 40.99634 -81.09025 26963 ft 372 kts 154°
2026-05-01 13:44 40.97579 -81.06963 27000 ft 372 kts 154°
2026-05-01 13:45 40.95524 -81.04901 27004 ft 372 kts 154°
2026-05-01 13:45 40.93459 -81.02832 27003 ft 373 kts 154°
2026-05-01 13:45 40.91386 -81.00755 27004 ft 373 kts 154°
2026-05-01 13:45 40.89315 -80.98682 27007 ft 374 kts 154°
2026-05-01 13:46 40.87242 -80.96610 27017 ft 374 kts 154°
2026-05-01 13:46 40.85169 -80.94538 27013 ft 374 kts 154°
2026-05-01 13:46 40.83092 -80.92466 27022 ft 374 kts 154°
2026-05-01 13:46 40.81013 -80.90392 27004 ft 374 kts 154°
2026-05-01 13:47 40.78934 -80.88321 27016 ft 374 kts 154°
2026-05-01 13:47 40.76860 -80.86255 26983 ft 374 kts 155°
2026-05-01 13:47 40.74794 -80.84200 27009 ft 373 kts 155°
2026-05-01 13:47 40.72723 -80.82142 27023 ft 373 kts 155°
2026-05-01 13:48 40.70650 -80.80085 27015 ft 373 kts 155°
2026-05-01 13:48 40.68582 -80.78034 27017 ft 373 kts 155°
2026-05-01 13:48 40.66508 -80.75978 27017 ft 373 kts 155°
2026-05-01 13:48 40.64438 -80.73927 27021 ft 373 kts 155°
2026-05-01 13:49 40.62389 -80.71900 27015 ft 373 kts 155°
2026-05-01 13:49 40.60314 -80.69848 27018 ft 373 kts 155°
2026-05-01 13:49 40.58237 -80.67797 27019 ft 374 kts 155°
2026-05-01 13:49 40.56153 -80.65740 27014 ft 374 kts 155°
2026-05-01 13:50 40.54076 -80.63691 27012 ft 373 kts 155°
2026-05-01 13:50 40.52001 -80.61645 26995 ft 373 kts 155°
2026-05-01 13:50 40.49923 -80.59601 27013 ft 373 kts 155°
2026-05-01 13:50 40.47851 -80.57563 27009 ft 373 kts 155°
2026-05-01 13:51 40.45784 -80.55532 27008 ft 373 kts 155°
2026-05-01 13:51 40.43699 -80.53484 27003 ft 374 kts 155°
2026-05-01 13:51 40.41618 -80.51441 27003 ft 374 kts 155°
2026-05-01 13:51 40.39535 -80.49400 27010 ft 373 kts 155°
2026-05-01 13:52 40.37452 -80.47358 27006 ft 374 kts 155°
2026-05-01 13:52 40.35368 -80.45319 27007 ft 374 kts 155°
2026-05-01 13:52 40.33289 -80.43284 27012 ft 373 kts 155°
2026-05-01 13:52 40.31206 -80.41250 27034 ft 374 kts 155°
2026-05-01 13:53 40.29124 -80.39217 27034 ft 374 kts 155°
2026-05-01 13:53 40.24974 -80.35169 27036 ft 374 kts 155°
2026-05-01 13:53 40.22892 -80.33141 27039 ft 374 kts 155°
2026-05-01 13:54 40.20806 -80.31111 27037 ft 374 kts 155°
2026-05-01 13:54 40.18717 -80.29079 27037 ft 374 kts 155°
2026-05-01 13:54 40.16628 -80.27048 27039 ft 374 kts 155°
2026-05-01 13:54 40.14541 -80.25023 27041 ft 374 kts 155°
2026-05-01 13:55 40.12455 -80.22999 27034 ft 374 kts 155°
2026-05-01 13:55 40.10370 -80.20978 27038 ft 373 kts 155°
2026-05-01 13:55 40.08285 -80.18958 27041 ft 373 kts 155°
2026-05-01 13:55 40.06199 -80.16939 27030 ft 373 kts 155°
2026-05-01 13:56 40.04120 -80.14928 27005 ft 373 kts 156°
2026-05-01 13:56 40.02041 -80.12918 27040 ft 372 kts 156°
2026-05-01 13:56 39.99958 -80.10909 27038 ft 373 kts 156°
2026-05-01 13:56 39.98577 -80.09576 27031 ft 373 kts 156°
2026-05-01 13:57 39.96491 -80.07566 27031 ft 374 kts 156°
2026-05-01 13:57 39.94404 -80.05555 27034 ft 374 kts 156°
2026-05-01 13:57 39.92326 -80.03554 27036 ft 374 kts 156°
2026-05-01 13:57 39.90233 -80.01540 27035 ft 374 kts 156°
2026-05-01 13:58 39.88139 -79.99527 27037 ft 374 kts 156°
2026-05-01 13:58 39.86043 -79.97515 27038 ft 374 kts 156°
2026-05-01 13:58 39.83950 -79.95506 27042 ft 374 kts 156°
2026-05-01 13:58 39.81858 -79.93500 27045 ft 374 kts 156°
2026-05-01 13:59 39.79759 -79.91489 27024 ft 374 kts 156°
2026-05-01 13:59 39.77670 -79.89487 27051 ft 374 kts 156°
2026-05-01 13:59 39.75574 -79.87484 27049 ft 374 kts 156°
2026-05-01 13:59 39.73472 -79.85475 27050 ft 375 kts 156°
2026-05-01 14:00 39.71369 -79.83466 27045 ft 376 kts 156°
2026-05-01 14:00 39.69262 -79.81454 27047 ft 376 kts 156°
2026-05-01 14:00 39.67154 -79.79444 27046 ft 377 kts 156°
2026-05-01 14:00 39.65039 -79.77429 27045 ft 378 kts 156°
2026-05-01 14:01 39.62920 -79.75411 27045 ft 378 kts 156°
2026-05-01 14:01 39.60808 -79.73400 27042 ft 377 kts 156°
2026-05-01 14:01 39.58718 -79.71413 27051 ft 377 kts 156°
2026-05-01 14:01 39.56573 -79.69376 27018 ft 378 kts 157°
2026-05-01 14:02 39.54455 -79.67366 27049 ft 378 kts 157°
2026-05-01 14:02 39.52358 -79.65376 27056 ft 378 kts 157°
2026-05-01 14:02 39.50234 -79.63366 27055 ft 379 kts 157°
2026-05-01 14:02 39.48106 -79.61350 27051 ft 379 kts 157°
2026-05-01 14:03 39.45974 -79.59333 27058 ft 380 kts 157°
2026-05-01 14:03 39.43843 -79.57317 27056 ft 380 kts 157°
2026-05-01 14:03 39.41706 -79.55297 27068 ft 380 kts 157°
2026-05-01 14:03 39.39571 -79.53282 27057 ft 380 kts 157°
2026-05-01 14:04 39.37441 -79.51272 27058 ft 380 kts 157°
2026-05-01 14:04 39.35308 -79.49261 27068 ft 379 kts 157°
2026-05-01 14:04 39.33183 -79.47260 27065 ft 380 kts 157°
2026-05-01 14:04 39.31048 -79.45251 27028 ft 379 kts 158°
2026-05-01 14:05 39.28918 -79.43248 27072 ft 380 kts 158°
2026-05-01 14:05 39.26780 -79.41240 27062 ft 381 kts 158°
2026-05-01 14:05 39.24636 -79.39228 27065 ft 381 kts 158°
2026-05-01 14:05 39.22487 -79.37212 27066 ft 382 kts 158°
2026-05-01 14:06 39.20334 -79.35193 27069 ft 383 kts 158°
2026-05-01 14:06 39.18180 -79.33175 27071 ft 383 kts 158°
2026-05-01 14:06 39.16022 -79.31156 27069 ft 382 kts 158°
2026-05-01 14:06 39.13872 -79.29143 27076 ft 382 kts 158°
2026-05-01 14:07 39.11720 -79.27136 27024 ft 381 kts 158°
2026-05-01 14:07 39.09592 -79.25147 27082 ft 379 kts 158°
2026-05-01 14:07 39.07453 -79.23148 27047 ft 380 kts 158°
2026-05-01 14:08 39.03199 -79.19180 27083 ft 378 kts 158°
2026-05-01 14:08 39.01059 -79.17193 27081 ft 380 kts 158°
2026-05-01 14:08 38.98913 -79.15199 27069 ft 381 kts 158°
2026-05-01 14:08 38.96765 -79.13201 27073 ft 382 kts 158°
2026-05-01 14:09 38.94633 -79.11221 27070 ft 382 kts 158°
2026-05-01 14:09 38.92479 -79.09221 27072 ft 383 kts 158°
2026-05-01 14:09 38.90317 -79.07218 27036 ft 383 kts 158°
2026-05-01 14:09 38.88161 -79.05218 27077 ft 382 kts 158°
2026-05-01 14:10 38.86007 -79.03182 27068 ft 385 kts 158°
2026-05-01 14:10 38.83831 -79.01197 27075 ft 387 kts 158°
2026-05-01 14:10 38.81642 -78.99193 27008 ft 384 kts 159°
2026-05-01 14:10 38.79482 -78.97199 27072 ft 382 kts 158°
2026-05-01 14:11 38.77325 -78.95202 27086 ft 383 kts 158°
2026-05-01 14:11 38.72983 -78.91197 27080 ft 385 kts 158°
2026-05-01 14:11 38.70806 -78.89192 27052 ft 387 kts 158°
2026-05-01 14:12 38.68624 -78.87169 27069 ft 387 kts 158°
2026-05-01 14:12 38.66435 -78.85165 27078 ft 387 kts 158°
2026-05-01 14:12 38.64243 -78.83155 27075 ft 388 kts 158°
2026-05-01 14:12 38.62050 -78.81141 27067 ft 388 kts 158°
2026-05-01 14:13 38.59857 -78.79130 27070 ft 388 kts 158°
2026-05-01 14:13 38.58382 -78.77778 27064 ft 388 kts 158°
2026-05-01 14:13 38.55485 -78.75122 27063 ft 387 kts 158°
2026-05-01 14:13 38.53290 -78.73114 27069 ft 387 kts 159°
2026-05-01 14:14 38.51098 -78.71110 27068 ft 388 kts 159°
2026-05-01 14:14 38.48900 -78.69102 27067 ft 389 kts 159°
2026-05-01 14:14 38.46704 -78.67095 27039 ft 388 kts 159°
2026-05-01 14:14 38.44515 -78.65095 27071 ft 386 kts 159°
2026-05-01 14:15 38.42332 -78.63106 27068 ft 386 kts 159°
2026-05-01 14:15 38.40142 -78.61112 27064 ft 387 kts 159°
2026-05-01 14:15 38.37954 -78.59120 27057 ft 387 kts 159°
2026-05-01 14:15 38.35758 -78.57120 27074 ft 387 kts 159°
2026-05-01 14:16 38.33558 -78.55124 27087 ft 389 kts 159°
2026-05-01 14:16 38.31361 -78.53126 26998 ft 386 kts 160°
2026-05-01 14:16 38.29191 -78.51151 27098 ft 382 kts 160°
2026-05-01 14:16 38.27024 -78.49190 27056 ft 383 kts 160°
2026-05-01 14:17 38.24873 -78.47240 27088 ft 383 kts 160°
2026-05-01 14:17 38.22699 -78.45272 27087 ft 384 kts 160°
2026-05-01 14:17 38.20519 -78.43301 27081 ft 385 kts 160°
2026-05-01 14:17 38.18337 -78.41328 27088 ft 385 kts 160°
2026-05-01 14:18 38.16150 -78.39351 27080 ft 386 kts 160°
2026-05-01 14:18 38.13967 -78.37380 27087 ft 386 kts 160°
2026-05-01 14:18 38.11778 -78.35405 27089 ft 386 kts 160°
2026-05-01 14:18 38.10329 -78.34098 27086 ft 386 kts 160°
2026-05-01 14:19 38.07406 -78.31465 27061 ft 385 kts 160°
2026-05-01 14:19 38.05223 -78.29497 27069 ft 384 kts 160°
2026-05-01 14:19 38.03043 -78.27537 27085 ft 384 kts 160°
2026-05-01 14:19 38.00861 -78.25577 27080 ft 385 kts 160°
2026-05-01 14:20 37.98676 -78.23615 27080 ft 385 kts 160°
2026-05-01 14:20 37.94297 -78.19687 27070 ft 386 kts 160°
2026-05-01 14:20 37.92106 -78.17722 27067 ft 386 kts 160°
2026-05-01 14:21 37.89921 -78.15766 27071 ft 386 kts 160°
2026-05-01 14:21 37.87756 -78.13828 27067 ft 386 kts 160°
2026-05-01 14:21 37.85562 -78.11867 27074 ft 386 kts 160°
2026-05-01 14:22 37.81193 -78.07964 27077 ft 386 kts 160°
2026-05-01 14:22 37.78999 -78.06006 27080 ft 386 kts 160°
2026-05-01 14:22 37.76807 -78.04052 27084 ft 386 kts 160°
2026-05-01 14:22 37.74625 -78.02108 27084 ft 386 kts 160°
2026-05-01 14:23 37.72436 -78.00160 27079 ft 386 kts 160°
2026-05-01 14:23 37.70233 -77.98200 27079 ft 386 kts 160°
2026-05-01 14:23 37.68037 -77.96248 27077 ft 386 kts 160°
2026-05-01 14:23 37.65842 -77.94298 27097 ft 386 kts 160°
2026-05-01 14:24 37.63647 -77.92349 27088 ft 386 kts 160°
2026-05-01 14:24 37.61451 -77.90402 27089 ft 386 kts 160°
2026-05-01 14:24 37.59254 -77.88455 27092 ft 386 kts 160°
2026-05-01 14:24 37.57054 -77.86507 27089 ft 386 kts 160°
2026-05-01 14:25 37.54877 -77.84505 27054 ft 392 kts 156°
2026-05-01 14:25 37.52849 -77.82209 27093 ft 402 kts 148°
2026-05-01 14:25 37.50947 -77.79566 27105 ft 412 kts 142°
2026-05-01 14:25 37.49141 -77.76741 27104 ft 414 kts 140°
2026-05-01 14:26 37.47364 -77.73873 27102 ft 415 kts 140°
2026-05-01 14:26 37.43827 -77.68112 27105 ft 416 kts 139°
2026-05-01 14:26 37.42058 -77.65231 27104 ft 416 kts 139°
2026-05-01 14:27 37.40288 -77.62351 27102 ft 416 kts 140°
2026-05-01 14:27 37.38518 -77.59472 27103 ft 416 kts 140°
2026-05-01 14:27 37.36745 -77.56591 27100 ft 416 kts 139°
2026-05-01 14:28 37.33202 -77.50844 27103 ft 416 kts 139°
2026-05-01 14:28 37.31431 -77.47975 27103 ft 416 kts 140°
2026-05-01 14:28 37.29678 -77.45137 27104 ft 416 kts 140°
2026-05-01 14:28 37.27905 -77.42269 27055 ft 416 kts 139°
2026-05-01 14:29 37.26143 -77.39421 27107 ft 414 kts 140°
2026-05-01 14:29 37.24375 -77.36569 27117 ft 414 kts 140°
2026-05-01 14:30 37.19062 -77.28009 27109 ft 415 kts 140°
2026-05-01 14:30 37.17291 -77.25159 27109 ft 415 kts 140°
2026-05-01 14:30 37.15516 -77.22307 27093 ft 415 kts 140°
2026-05-01 14:31 37.11966 -77.16608 27097 ft 415 kts 140°
2026-05-01 14:31 37.10188 -77.13758 27096 ft 415 kts 140°
2026-05-01 14:31 37.08411 -77.10912 27093 ft 415 kts 140°
2026-05-01 14:31 37.06634 -77.08069 27095 ft 415 kts 140°
2026-05-01 14:32 37.04857 -77.05229 26943 ft 419 kts 140°
2026-05-01 14:32 37.03040 -77.02335 26607 ft 428 kts 139°
2026-05-01 14:32 37.01196 -76.99391 26011 ft 425 kts 138°
2026-05-01 14:32 36.99402 -76.96511 25618 ft 417 kts 139°
2026-05-01 14:33 36.97606 -76.93655 25233 ft 417 kts 138°
2026-05-01 14:33 36.95824 -76.90819 24845 ft 412 kts 138°
2026-05-01 14:33 36.94061 -76.88014 24475 ft 407 kts 138°
2026-05-01 14:33 36.92320 -76.85247 24084 ft 403 kts 138°
2026-05-01 14:34 36.90592 -76.82504 23715 ft 399 kts 138°
2026-05-01 14:34 36.88880 -76.79789 23282 ft 395 kts 138°
2026-05-01 14:34 36.87189 -76.77109 22831 ft 391 kts 138°
2026-05-01 14:34 36.85539 -76.74495 22392 ft 386 kts 138°
2026-05-01 14:35 36.83893 -76.71891 21961 ft 382 kts 137°
2026-05-01 14:35 36.82251 -76.69295 21543 ft 377 kts 137°
2026-05-01 14:35 36.80632 -76.66738 21121 ft 373 kts 137°
2026-05-01 14:35 36.79033 -76.64214 20703 ft 369 kts 137°
2026-05-01 14:36 36.77449 -76.61716 20296 ft 365 kts 137°
2026-05-01 14:36 36.75884 -76.59249 19889 ft 361 kts 137°
2026-05-01 14:36 36.74335 -76.56809 19489 ft 356 kts 137°
2026-05-01 14:36 36.72804 -76.54400 19094 ft 353 kts 136°
2026-05-01 14:37 36.71288 -76.52015 18709 ft 349 kts 136°
2026-05-01 14:37 36.69787 -76.49657 18273 ft 345 kts 136°
2026-05-01 14:37 36.68302 -76.47325 17822 ft 342 kts 136°
2026-05-01 14:37 36.66832 -76.45018 17389 ft 339 kts 135°
2026-05-01 14:38 36.65378 -76.42739 16958 ft 336 kts 135°
2026-05-01 14:38 36.63931 -76.40472 16531 ft 333 kts 135°
2026-05-01 14:38 36.62493 -76.38220 16106 ft 330 kts 135°
2026-05-01 14:38 36.61070 -76.35993 15700 ft 328 kts 134°
2026-05-01 14:39 36.59657 -76.33782 15291 ft 325 kts 134°
2026-05-01 14:39 36.58255 -76.31591 14888 ft 322 kts 134°
2026-05-01 14:39 36.56865 -76.29420 14503 ft 320 kts 134°
2026-05-01 14:39 36.55483 -76.27262 14091 ft 317 kts 134°
2026-05-01 14:40 36.54114 -76.25126 13666 ft 315 kts 133°
2026-05-01 14:40 36.52751 -76.23001 13224 ft 313 kts 133°
2026-05-01 14:40 36.51400 -76.20896 12766 ft 311 kts 133°
2026-05-01 14:40 36.50055 -76.18803 11729 ft 311 kts 133°
2026-05-01 14:41 36.48692 -76.16687 10691 ft 312 kts 133°
2026-05-01 14:41 36.47364 -76.14615 10032 ft 299 kts 133°
2026-05-01 14:41 36.46102 -76.12651 9259 ft 291 kts 133°
2026-05-01 14:41 36.44840 -76.10693 8309 ft 290 kts 133°
2026-05-01 14:42 36.43590 -76.08755 7547 ft 282 kts 133°
2026-05-01 14:42 36.42399 -76.06903 7056 ft 267 kts 132°
2026-05-01 14:42 36.41254 -76.05128 6295 ft 263 kts 132°
2026-05-01 14:42 36.40095 -76.03340 5249 ft 267 kts 131°
2026-05-01 14:43 36.38954 -76.01574 4561 ft 256 kts 130°
2026-05-01 14:43 36.37900 -75.99939 4584 ft 193 kts 131°
2026-05-01 14:43 36.37355 -75.99034 4991 ft 99 kts 132°
2026-05-01 14:43 36.36592 -75.97880 3722 ft 202 kts 130°
2026-05-01 14:44 36.35994 -75.96986 3556 ft 198 kts 128°
2026-05-01 14:44 36.34239 -75.94371 3087 ft 194 kts 132°
2026-05-01 14:44 36.33134 -75.93499 2943 ft 193 kts 161°
2026-05-01 14:45 36.31816 -75.93269 2678 ft 193 kts 178°
2026-05-01 14:45 36.29173 -75.93464 2094 ft 185 kts 184°
2026-05-01 14:45 36.27881 -75.93597 2003 ft 184 kts 183°
2026-05-01 14:46 36.26615 -75.93789 2006 ft 187 kts 195°
2026-05-01 14:46 36.25166 -75.96172 2025 ft 182 kts 270°
2026-05-01 14:46 36.25184 -75.97734 2004 ft 182 kts 279°
2026-05-01 14:47 36.25298 -75.99286 2001 ft 178 kts 280°
2026-05-01 14:47 36.25418 -76.00814 1994 ft 170 kts 279°
2026-05-01 14:47 36.25507 -76.02164 2002 ft 151 kts 279°
2026-05-01 14:48 36.25537 -76.04711 1958 ft 139 kts 271°
2026-05-01 14:48 36.25527 -76.05913 2242 ft 140 kts 274°
2026-05-01 14:48 36.25594 -76.08357 1604 ft 141 kts 277°
2026-05-01 14:49 36.25804 -76.10767 981 ft 137 kts 279°
2026-05-01 14:49 36.25895 -76.13151 596 ft 138 kts 276°
2026-05-01 14:50 36.26010 -76.15071 226 ft 142 kts 274°
2026-05-01 14:50 36.26075 -76.16678 17 ft 4 kts 312°
2026-05-01 14:51 36.26114 -76.16695 20 ft 7 kts 345°
2026-05-01 14:51 36.26171 -76.16755 18 ft 0 kts 265°
2026-05-01 14:52 36.26174 -76.16871 19 ft 7 kts 272°
2026-05-01 14:52 36.26179 -76.16953 19 ft 10 kts 272°
2026-05-01 14:52 36.26188 -76.17146 19 ft 12 kts 283°
2026-05-01 14:53 36.26213 -76.17238 19 ft 11 kts 302°
2026-05-01 14:53 36.26269 -76.17305 19 ft 11 kts 322°
2026-05-01 14:53 36.26316 -76.17364 21 ft 2 kts 292°
2026-05-01 14:53 36.26308 -76.17400 18 ft 0 kts 222°
2026-05-01 14:54 36.26303 -76.17408 18 ft 0 kts 226°